SCP
7 6 5 4 3 3 3 3 4 3 5 3 2 2 1 1 0 0 0 0 0 1
8 7 5 4 6 4 4 4 3 4 4 3 1 1 1 1 1 1 0 1 0 0
8 9 9 8 7 4 7 6 5 5 4 2 1 1 1 1 1 1 0 0 0 0
8 10 9 6 4 8 10 7 5 3 2 1 1 1 2 2 1 0 0 0 0 0
3 4 3 4 6 17 8 6 3 2 1 1 1 1 1 1 0 0 0 0 0 0
8 6 1 1 3 2 7 5 4 2 2 1 1 1 1 0 0 0 0 0 0 0
7 12 7 1 3 1 5 7 5 3 2 2 1 0 0 0 0 0 0 0 0 0
6 6 6 4 4 3 4 5 4 4 3 1 0 0 0 0 0 0 0 0 0 0
6 7 5 4 3 5 5 7 6 3 1 0 0 0 0 0 0 0 0 0 0 0
9 8 7 7 6 6 7 6 2 1 0 0 0 0 0 0 0 0 0 0 0 0
9 10 10 8 7 6 4 2 0 0 0 0 0 0 0 0 0 0 0 0 0 0
6 6 6 4 3 2 1 1 0 0 0 0 0 0 0 0 0 0 0 0 0 0
1 1 1 0 0 0 0 0 0 0 0 0 0 0 0 0 0 0 0 0 0 0
0 0 0 0 0 0 0 0 0 0 0 0 0 0 0 0 0 0 0 0 0 0
Wind_Speed_500mb
86 88 74 79 82 68 67 62 63 64 63 58 61 52 41 34 27 29 33 37 24 19
99 95 91 86 86 75 65 65 64 68 60 63 55 45 37 31 35 44 39 29 22 14
100 96 89 84 88 72 66 66 67 68 62 57 51 41 38 40 44 41 25 23 22 20
85 87 89 97 88 69 77 70 69 65 66 60 50 45 49 38 41 37 33 29 25 23
79 60 60 61 70 87 71 73 64 60 61 57 51 51 53 45 38 39 35 28 21 19
92 118 112 79 47 58 82 73 63 61 58 53 48 53 47 44 40 37 29 21 19 21
66 80 90 93 86 106 80 76 67 61 55 54 45 45 44 41 38 32 25 23 21 15
70 76 81 90 88 66 72 73 65 63 56 50 47 46 43 42 38 32 24 20 16 21
67 81 84 86 81 82 77 75 70 59 55 56 42 47 49 41 32 26 22 20 17 9
69 76 79 83 88 91 92 79 68 61 57 55 54 53 44 35 30 23 19 15 9 8
76 80 84 94 96 93 84 77 71 62 63 60 57 53 44 38 29 25 21 17 15 20
77 88 86 97 91 82 78 70 65 59 59 61 63 51 43 37 30 27 22 25 20 12
90 92 93 96 88 79 75 71 60 58 58 63 63 53 47 32 26 27 21 18 21 14
85 93 95 93 87 86 75 68 62 62 60 58 55 52 48 40 25 20 18 12 9 11
Wind_Direction_500mb
203 197 194 193 194 189 187 187 194 190 196 198 202 204 205 209 233 227 200 193 209 243
207 197 191 197 192 185 183 185 194 189 196 202 202 206 209 213 211 204 195 212 228 240
208 197 191 196 185 178 176 185 190 191 197 198 200 203 199 204 208 198 203 213 230 241
208 188 190 196 182 177 180 194 194 191 194 193 196 199 187 185 197 201 212 225 233 240
221 219 195 184 174 184 188 196 188 181 183 184 188 193 195 199 197 205 211 222 236 240
206 216 240 236 227 201 187 188 175 177 176 175 181 193 196 193 199 199 209 218 226 242
195 196 202 206 210 197 178 173 173 171 171 177 179 187 188 193 193 198 206 214 226 230
188 185 188 183 193 187 169 167 167 167 171 175 178 183 185 189 194 203 202 211 210 238
183 183 183 183 175 175 170 166 166 166 169 173 166 182 184 191 194 192 198 196 230 251
185 182 175 172 173 171 168 165 163 162 167 162 180 179 187 191 188 181 179 177 169 127
182 178 170 173 169 168 173 170 168 162 171 176 173 176 184 187 174 171 163 165 161 200
190 178 175 175 169 174 170 161 156 163 167 170 167 178 183 185 170 167 154 186 180 191
184 183 175 177 173 167 157 155 151 156 158 163 163 167 172 150 157 157 176 191 196 236
177 177 173 172 169 160 151 148 146 149 150 156 164 164 163 147 147 153 139 134 152 192
Wind_Speed_850mb
86 88 74 79 82 68 67 62 63 64 63 58 61 52 41 34 27 29 33 37 24 19
99 95 91 86 86 75 65 65 64 68 60 63 55 45 37 31 35 44 39 29 22 14
100 96 89 84 88 72 66 66 67 68 62 57 51 41 38 40 44 41 25 23 22 20
85 87 89 97 88 69 77 70 69 65 66 60 50 45 49 38 41 37 33 29 25 23
79 60 60 61 70 87 71 73 64 60 61 57 51 51 53 45 38 39 35 28 21 19
92 118 112 79 47 58 82 73 63 61 58 53 48 53 47 44 40 37 29 21 19 21
66 80 90 93 86 106 80 76 67 61 55 54 45 45 44 41 38 32 25 23 21 15
70 76 81 90 88 66 72 73 65 63 56 50 47 46 43 42 38 32 24 20 16 21
67 81 84 86 81 82 77 75 70 59 55 56 42 47 49 41 32 26 22 20 17 9
69 76 79 83 88 91 92 79 68 61 57 55 54 53 44 35 30 23 19 15 9 8
76 80 84 94 96 93 84 77 71 62 63 60 57 53 44 38 29 25 21 17 15 20
77 88 86 97 91 82 78 70 65 59 59 61 63 51 43 37 30 27 22 25 20 12
90 92 93 96 88 79 75 71 60 58 58 63 63 53 47 32 26 27 21 18 21 14
85 93 95 93 87 86 75 68 62 62 60 58 55 52 48 40 25 20 18 12 9 11
Wind_Direction_850mb
203 197 194 193 194 189 187 187 194 190 196 198 202 204 205 209 233 227 200 193 209 243
207 197 191 197 192 185 183 185 194 189 196 202 202 206 209 213 211 204 195 212 228 240
208 197 191 196 185 178 176 185 190 191 197 198 200 203 199 204 208 198 203 213 230 241
208 188 190 196 182 177 180 194 194 191 194 193 196 199 187 185 197 201 212 225 233 240
221 219 195 184 174 184 188 196 188 181 183 184 188 193 195 199 197 205 211 222 236 240
206 216 240 236 227 201 187 188 175 177 176 175 181 193 196 193 199 199 209 218 226 242
195 196 202 206 210 197 178 173 173 171 171 177 179 187 188 193 193 198 206 214 226 230
188 185 188 183 193 187 169 167 167 167 171 175 178 183 185 189 194 203 202 211 210 238
183 183 183 183 175 175 170 166 166 166 169 173 166 182 184 191 194 192 198 196 230 251
185 182 175 172 173 171 168 165 163 162 167 162 180 179 187 191 188 181 179 177 169 127
182 178 170 173 169 168 173 170 168 162 171 176 173 176 184 187 174 171 163 165 161 200
190 178 175 175 169 174 170 161 156 163 167 170 167 178 183 185 170 167 154 186 180 191
184 183 175 177 173 167 157 155 151 156 158 163 163 167 172 150 157 157 176 191 196 236
177 177 173 172 169 160 151 148 146 149 150 156 164 164 163 147 147 153 139 134 152 192